RH
31 32 33 36 37 35 34 33 33 33 33 33 32 32 31 31 34 36 35 32 29 32 35 34 34 42 51 53 51 50 54 59 59 58 60 63 64 64 64 64 66 68 69 69 69 68 67 63 58 51 46 43 40 38 36 35 36 37 37 38 39 39 40 38 36 38 38 37 37 34 32 38 46 50 54 58 61 65 68 72 81 84 86 86 79 73
34 39 39 37 36 35 34 33 33 33 32 32 32 32 31 31 36 37 34 32 30 33 36 37 36 42 51 56 56 54 57 60 60 60 61 62 65 67 68 68 69 68 69 70 68 67 67 62 57 52 47 43 42 40 38 36 36 38 38 37 38 39 40 41 38 39 40 38 38 38 35 35 41 47 52 56 59 67 73 76 80 82 85 88 82 74
42 46 41 35 35 35 35 34 33 33 33 33 33 33 33 35 39 38 38 38 33 34 39 39 38 43 49 54 58 58 59 62 63 62 59 59 61 65 69 72 73 73 73 74 71 68 67 62 56 53 48 44 43 42 40 38 37 38 38 35 35 35 36 38 39 39 40 38 38 39 38 35 38 45 52 57 60 65 74 79 81 82 83 84 79 72
47 48 39 35 37 36 35 34 33 33 33 34 35 34 34 36 37 36 43 45 35 33 37 36 39 46 48 49 54 58 62 66 64 62 60 57 56 58 67 75 76 76 79 78 75 70 66 62 56 52 48 45 44 43 41 40 39 38 36 34 32 33 32 33 37 38 39 40 39 39 40 37 38 44 49 56 62 66 74 82 81 81 84 82 76 71
44 44 38 37 37 36 35 35 34 34 32 32 34 35 34 35 36 34 39 40 35 37 40 37 42 48 49 50 54 56 59 63 62 61 61 59 56 57 64 74 75 75 78 78 75 71 67 61 55 50 47 45 44 44 43 41 40 38 35 33 32 32 31 30 33 35 38 41 41 40 41 41 41 45 48 53 58 62 72 86 89 85 86 85 81 76
40 39 37 37 37 36 37 35 34 35 33 31 34 36 35 34 34 33 33 33 34 41 46 45 43 47 51 52 56 57 56 58 61 62 61 61 60 62 65 69 69 70 74 77 75 72 68 60 54 50 47 46 45 44 43 42 41 38 34 32 33 32 30 29 31 33 35 38 41 42 43 43 44 49 52 52 59 66 73 85 90 86 85 86 87 82
39 37 38 38 38 39 39 37 36 36 35 34 34 34 33 31 32 32 33 34 38 45 50 45 38 40 50 52 53 58 57 59 64 61 63 69 68 65 65 65 65 67 74 78 74 71 67 59 54 51 48 47 46 44 43 43 43 38 33 32 33 31 29 29 30 32 33 34 39 43 43 44 47 52 55 54 60 69 73 80 86 88 88 89 90 84
40 39 39 38 39 40 38 39 38 36 35 35 34 31 30 31 31 30 32 36 40 46 47 42 40 40 46 51 52 57 59 62 64 58 62 74 74 68 66 65 65 68 75 77 74 70 65 59 55 52 49 48 47 44 42 44 42 37 33 31 29 28 28 29 30 31 32 33 36 41 43 44 49 54 57 57 59 61 67 79 86 88 89 88 90 84
40 39 40 39 40 38 38 39 37 36 37 35 32 31 29 31 31 28 31 35 40 44 39 39 47 46 45 51 55 56 57 59 61 58 59 68 71 70 67 65 65 68 72 74 73 69 63 59 57 54 51 49 47 44 43 42 38 32 29 27 25 25 25 27 29 29 31 32 34 38 42 44 50 55 56 58 61 61 66 77 85 87 86 87 90 86
39 40 40 39 40 39 39 39 37 37 38 35 32 31 31 31 30 29 31 35 41 44 38 39 49 46 40 49 56 57 57 60 64 62 61 64 66 70 69 65 65 67 69 72 72 69 64 62 61 57 53 49 45 43 41 37 32 28 26 24 23 23 23 25 27 28 29 30 32 36 40 43 48 55 56 57 61 64 66 72 82 89 87 85 88 84
39 42 42 42 43 42 40 39 39 38 35 34 33 33 34 35 33 32 33 36 39 41 41 46 51 45 41 51 61 62 61 64 67 66 65 65 65 69 71 69 67 67 68 71 71 68 65 65 62 58 55 48 42 40 38 33 30 28 26 24 23 22 24 26 26 26 26 27 30 33 37 42 45 51 57 57 58 63 67 71 79 87 87 85 85 82
41 43 44 44 45 43 42 41 41 38 35 35 35 34 37 40 40 37 38 43 41 39 44 48 48 47 51 60 64 61 57 59 65 70 71 68 68 72 73 71 68 68 70 71 69 65 63 63 61 59 54 45 41 41 38 33 31 30 27 25 24 22 24 26 27 26 25 26 28 30 35 41 43 49 57 58 56 59 66 73 77 81 84 82 80 80
46 45 42 42 45 43 42 43 42 39 38 37 36 36 37 37 38 36 38 42 40 40 44 44 44 48 53 61 62 57 56 58 62 69 72 72 73 74 74 74 72 70 71 70 67 63 62 62 61 58 50 44 42 41 37 34 32 29 27 25 23 23 24 27 28 28 25 25 27 29 33 40 44 48 54 58 57 56 61 72 77 80 82 80 80 82
47 45 43 43 46 44 41 42 41 39 40 39 36 38 38 35 34 36 36 35 35 39 41 39 41 45 51 60 61 56 58 61 61 64 68 72 74 74 74 75 74 71 69 68 65 63 62 63 60 54 48 44 43 39 35 32 30 27 25 23 23 25 27 29 30 30 27 25 26 28 31 38 44 47 51 56 59 55 55 66 76 80 81 82 86 89
42 45 46 44 45 45 41 41 40 39 40 39 36 35 38 38 37 37 36 35 36 38 40 41 41 43 53 62 58 55 57 58 60 63 65 68 71 72 74 74 72 71 69 66 63 62 63 62 57 52 47 44 40 36 33 31 28 25 23 23 24 27 30 30 31 31 30 27 26 28 31 36 43 48 50 53 57 55 53 61 72 80 84 84 88 93
42 45 44 41 43 43 42 41 39 40 43 41 36 36 41 40 37 36 38 39 37 35 38 41 38 39 48 54 54 55 57 57 61 65 66 67 68 69 72 72 71 71 68 63 60 62 64 60 55 50 44 40 37 34 32 29 26 24 23 24 26 29 30 30 32 32 32 31 28 27 31 35 40 47 50 51 54 54 54 58 67 79 88 86 86 90
43 46 44 40 42 41 41 42 39 41 46 43 38 38 38 34 33 36 41 42 37 36 40 37 33 36 42 48 54 56 58 60 62 65 66 65 67 68 70 71 69 67 64 61 61 62 60 55 49 44 39 36 34 32 31 28 25 24 24 25 27 29 30 31 32 32 31 32 31 28 30 34 38 44 49 51 51 50 52 57 63 73 84 86 84 85
41 46 46 42 44 44 42 42 41 41 43 42 40 37 35 34 34 34 36 38 35 36 40 34 29 32 38 50 59 58 62 65 62 63 65 65 66 67 66 66 65 63 62 62 60 57 53 49 44 40 36 34 32 31 30 27 25 23 25 26 27 30 32 32 33 34 33 33 33 32 30 32 36 40 46 51 51 48 47 53 59 66 79 87 86 84
40 46 49 44 44 45 42 44 48 47 43 41 40 36 36 37 35 32 32 33 35 36 38 36 32 34 40 50 56 56 63 69 65 62 62 62 63 61 59 61 61 61 62 60 57 52 48 45 40 38 36 33 32 31 28 26 24 24 25 25 26 30 32 32 35 38 37 35 35 35 32 31 34 38 43 49 52 50 44 46 54 61 75 88 89 87
42 44 48 46 43 42 44 47 51 52 48 45 43 39 37 35 31 32 32 32 36 37 38 38 34 37 42 43 44 50 57 63 66 64 60 59 59 57 57 57 56 57 57 55 51 48 46 44 41 39 36 33 31 30 28 26 24 24 26 25 26 30 33 34 36 40 41 38 37 38 36 32 32 35 40 45 50 52 46 43 46 53 68 85 92 89
47 45 47 48 45 45 50 51 48 50 52 51 50 47 43 38 34 35 35 34 36 36 39 40 34 36 38 32 34 44 47 48 54 57 56 55 54 54 53 51 51 52 52 50 48 46 46 45 42 40 36 34 31 29 27 26 24 25 26 26 25 29 33 35 36 39 42 41 39 40 39 36 32 32 36 41 46 50 49 45 43 45 55 73 87 89
52 50 49 50 50 51 54 50 45 48 50 50 52 52 49 43 39 40 39 38 38 37 41 43 39 39 37 30 31 37 37 38 42 45 45 44 43 44 43 42 44 45 46 47 46 46 46 44 42 39 36 33 30 28 27 25 25 25 26 27 26 28 33 35 35 37 41 43 42 42 42 40 36 32 33 37 41 46 49 48 44 42 47 59 74 81
53 52 52 52 51 51 50 46 46 50 51 50 52 53 50 46 43 41 41 41 42 42 44 44 42 43 41 35 33 33 33 34 37 39 40 37 35 36 35 36 39 39 41 43 44 44 43 42 40 38 34 31 28 27 26 24 25 26 26 27 27 28 33 36 35 36 39 42 43 42 43 44 41 37 34 35 38 42 46 48 46 43 44 50 61 69
56 55 54 54 53 52 50 49 50 52 52 54 56 54 51 49 46 43 42 43 42 42 46 45 43 45 45 40 35 35 34 34 35 37 39 38 36 36 36 37 38 38 40 42 42 42 40 40 40 37 33 30 28 27 25 25 26 26 27 28 28 29 32 35 36 36 38 41 42 43 45 46 45 43 40 37 38 40 43 45 45 43 41 44 52 59
58 55 53 55 55 54 56 58 60 61 59 57 58 57 54 53 50 45 44 44 42 44 49 48 43 43 46 42 37 35 33 33 35 36 38 39 39 40 41 40 39 40 43 45 43 41 41 41 40 36 33 31 30 28 26 26 26 26 27 29 31 30 30 35 38 37 38 41 43 45 46 47 48 48 46 42 40 41 43 44 45 43 41 41 45 51
57 56 54 55 54 53 58 60 60 62 61 57 58 58 56 56 53 49 46 44 45 48 49 49 45 42 44 43 40 38 34 34 38 37 37 39 40 42 44 43 42 44 46 47 45 44 44 44 41 37 35 33 30 29 28 27 26 27 28 29 30 30 29 33 38 39 39 42 46 48 49 50 50 51 51 48 44 42 44 46 46 46 44 41 42 46
59 60 58 56 55 55 58 58 56 57 59 59 60 59 57 57 55 52 48 47 50 50 45 47 48 44 44 43 41 41 38 38 41 41 40 41 42 43 44 45 47 48 48 48 48 48 48 47 44 41 38 34 32 30 30 29 27 28 30 30 29 29 28 30 36 40 42 43 48 52 52 51 52 52 53 52 50 46 44 46 48 48 47 44 43 44
64 65 63 60 59 58 58 58 57 57 59 60 62 62 61 59 57 55 52 51 52 49 47 50 49 45 43 42 40 42 41 39 40 42 43 45 45 46 47 47 47 47 48 49 49 49 49 47 45 42 39 37 35 34 32 30 29 30 31 30 29 28 28 29 33 40 45 46 49 53 54 53 53 54 54 55 55 52 46 46 48 49 49 48 45 44
66 67 66 64 63 61 59 60 58 56 59 61 61 63 63 61 60 57 54 51 50 48 49 49 47 44 42 40 40 41 40 39 38 38 40 42 42 44 44 44 44 45 48 51 50 49 48 47 45 42 40 39 37 36 35 32 32 32 32 33 32 30 30 31 33 40 47 49 50 53 55 55 54 55 57 57 57 55 51 49 50 50 50 50 48 45
64 68 69 67 66 63 61 62 59 57 60 62 61 62 63 64 63 60 56 54 53 51 49 47 46 44 41 40 40 39 38 38 38 38 40 39 40 41 40 41 44 45 47 50 51 49 47 46 44 41 40 40 39 39 37 35 34 34 35 37 37 34 34 36 37 40 47 51 51 53 56 56 56 57 58 59 58 57 53 50 49 51 51 51 51 48
65 68 69 68 67 66 64 63 60 60 62 62 62 63 65 65 63 61 60 56 53 52 50 48 46 44 41 39 39 39 39 39 39 40 40 40 40 40 41 43 44 44 45 49 51 50 48 48 45 41 41 43 42 40 39 37 36 36 38 40 40 39 39 42 43 43 48 53 53 54 57 57 57 59 61 63 63 61 58 53 51 52 51 50 50 50
67 69 70 71 69 66 65 65 63 62 61 63 66 66 66 65 60 57 57 54 51 52 52 49 46 46 44 40 39 40 39 38 39 40 41 42 43 42 43 44 43 44 47 49 50 51 51 49 45 41 41 44 44 42 39 38 36 37 40 41 41 42 43 45 47 47 49 53 54 56 58 58 58 60 63 66 66 65 62 58 55 55 54 52 50 50
69 69 70 72 71 67 65 66 65 62 62 67 68 63 60 61 59 55 55 54 53 52 49 46 46 47 45 42 42 42 41 39 40 41 42 43 44 44 44 42 42 45 48 47 47 48 49 47 44 40 41 44 45 43 39 38 37 37 40 42 43 46 46 48 50 51 52 54 55 58 59 59 60 61 64 67 67 65 62 59 57 58 58 57 54 51
68 70 70 71 71 68 66 66 65 62 64 69 64 55 53 56 57 56 54 54 53 49 45 44 44 45 45 44 44 44 45 44 42 42 42 42 43 44 43 40 40 42 44 43 43 44 45 45 43 41 41 43 45 43 39 38 37 36 39 43 45 47 48 49 53 56 56 56 57 59 61 61 63 65 67 67 66 65 63 60 56 56 58 60 59 56
70 71 71 71 71 68 65 68 69 66 66 68 61 54 55 55 54 53 51 51 51 49 46 45 44 44 47 47 44 43 45 46 43 42 42 42 42 40 38 37 38 38 39 41 41 42 43 43 42 40 41 44 45 41 38 37 34 34 39 46 46 47 49 50 54 58 58 58 59 61 63 64 67 68 67 67 67 67 67 64 58 56 58 61 61 60
67 70 70 70 70 68 67 71 74 68 65 65 62 59 60 59 57 57 54 52 53 50 48 47 45 46 51 49 44 43 45 45 42 41 42 42 41 36 33 34 36 35 37 39 39 41 42 41 40 40 42 45 44 40 37 36 31 31 40 46 45 46 49 50 53 57 59 60 61 63 65 66 68 68 68 70 71 70 70 68 63 60 60 61 62 62
60 67 69 69 69 68 67 69 70 67 65 65 63 61 61 61 61 59 55 53 53 51 50 50 48 49 51 48 43 45 45 42 40 40 40 40 37 33 32 33 33 34 37 38 39 41 41 40 39 40 43 44 43 40 37 33 28 28 37 44 44 45 48 49 52 56 60 63 65 67 68 69 69 69 70 72 72 71 73 74 70 67 64 63 63 63
54 61 67 70 70 69 69 68 68 70 67 64 63 61 59 60 61 57 53 55 57 54 51 50 48 47 47 45 44 47 44 41 41 42 40 38 35 32 32 32 33 35 38 39 40 41 39 38 38 40 42 43 42 40 34 29 26 28 34 40 42 43 46 50 53 56 60 65 69 72 74 74 74 73 73 73 72 71 74 76 75 73 71 68 66 64
52 58 65 71 71 70 71 70 70 72 69 66 66 63 60 63 63 58 57 61 61 56 51 48 46 44 43 44 46 46 42 40 44 44 39 36 34 32 33 33 33 36 38 39 40 40 38 37 37 39 41 42 41 38 31 26 26 27 31 36 39 41 44 49 54 57 59 64 70 74 77 77 77 76 74 73 71 71 73 75 76 75 74 72 70 67
56 58 63 70 72 71 72 72 71 71 69 69 69 66 64 66 64 62 66 67 61 55 51 49 48 46 45 45 45 44 41 42 45 44 37 33 32 32 33 34 34 35 37 38 39 39 36 35 36 38 39 40 40 36 30 26 26 27 29 32 35 38 40 44 50 55 58 61 66 70 73 74 74 74 73 72 71 71 73 73 73 73 73 72 72 70
63 61 62 67 70 71 74 76 75 74 73 73 74 71 67 66 66 69 72 68 60 57 54 51 50 49 48 46 44 44 45 42 39 37 33 31 32 34 34 34 34 34 34 36 37 36 35 34 35 37 38 39 39 34 29 27 26 26 28 29 31 33 35 37 41 48 52 55 59 63 67 69 71 71 70 69 69 68 68 68 70 71 71 70 70 70
62 63 63 67 70 71 74 79 80 79 77 76 75 72 68 67 70 73 72 66 61 59 56 55 54 51 49 48 45 43 43 39 34 33 33 33 33 35 35 36 36 34 34 34 33 33 34 34 34 35 36 38 38 34 29 27 27 26 26 28 28 29 31 32 33 35 41 45 50 55 59 62 64 64 64 64 63 62 62 62 65 68 69 68 67 66
58 63 63 65 69 71 74 78 80 78 76 75 74 72 70 70 71 71 70 67 65 62 59 59 58 54 51 51 48 42 39 37 35 34 34 34 34 36 37 37 36 36 34 32 31 30 32 33 33 33 34 36 37 35 30 27 27 26 25 26 27 27 28 27 26 27 30 33 37 41 46 51 54 55 56 57 57 56 58 58 59 61 62 62 61 59
53 58 60 63 68 70 71 74 76 75 74 73 73 73 72 72 71 70 69 67 66 66 64 62 60 58 54 52 51 47 41 39 37 35 34 34 35 36 37 37 37 37 36 33 30 29 30 31 32 32 32 33 34 34 31 28 26 25 26 26 27 26 26 25 24 24 25 27 28 29 32 37 42 44 46 47 48 50 52 53 53 53 55 55 54 53
49 54 56 59 63 66 67 69 72 73 72 72 72 73 74 75 75 73 70 66 65 66 66 63 62 60 56 53 54 51 46 41 38 36 35 35 35 36 36 36 37 38 38 35 31 28 27 27 29 31 32 32 32 32 31 28 26 24 25 25 25 25 25 25 24 24 25 25 25 25 26 28 30 33 34 35 38 41 43 45 45 46 48 49 49 49
48 51 50 50 54 56 58 64 69 70 71 72 74 75 75 76 76 73 70 67 65 65 65 65 63 62 59 56 55 53 50 45 40 37 36 35 35 36 36 36 37 38 39 38 33 28 26 25 26 29 30 31 32 31 30 29 26 24 24 25 25 24 25 26 25 24 25 26 26 25 25 25 25 26 26 27 28 30 31 32 34 34 36 39 41 43
47 49 47 48 52 52 54 59 64 67 70 72 74 76 77 78 76 73 70 70 69 67 66 65 65 63 60 58 56 55 52 48 42 38 37 36 36 36 36 36 37 38 39 39 36 31 27 25 25 26 27 28 29 29 29 28 27 25 23 24 24 23 24 26 26 26 27 28 27 26 26 24 23 24 24 23 24 24 24 25 25 22 22 24 27 31
48 51 48 48 51 50 48 50 54 58 63 67 70 72 74 75 75 73 72 72 71 69 67 66 67 66 63 59 58 56 54 51 44 39 37 37 36 36 36 36 37 38 40 40 37 33 29 26 24 24 25 26 27 27 27 27 27 26 25 24 22 21 21 23 25 26 28 30 29 28 27 25 24 25 24 23 23 22 21 23 24 21 16 14 15 18
45 49 46 45 47 45 41 40 44 50 56 62 68 72 71 72 73 72 73 74 72 70 68 67 67 66 64 61 59 57 56 52 45 39 38 38 36 36 36 36 37 39 40 40 38 34 32 29 25 24 24 25 25 26 27 27 28 29 28 26 24 22 21 21 23 24 26 28 29 29 29 28 27 27 26 25 25 22 17 14 18 20 17 14 13 13
41 43 42 42 43 41 38 39 42 45 47 53 62 67 68 69 72 72 73 74 74 72 70 69 68 66 64 62 61 59 58 54 46 40 39 38 37 37 37 38 39 40 41 41 39 37 35 32 28 26 25 24 25 26 26 26 28 29 29 27 26 26 23 22 22 22 23 24 25 25 27 29 28 28 27 26 26 25 20 14 13 14 14 13 13 13
39 40 41 41 39 38 38 39 41 42 42 44 50 56 59 63 68 71 71 72 74 73 70 69 69 66 64 62 61 60 59 55 48 43 40 39 38 39 39 40 41 40 41 42 41 39 37 34 31 29 27 25 25 26 24 24 26 28 28 28 28 27 26 25 24 23 22 22 21 21 23 26 27 27 28 27 26 27 26 22 18 14 12 12 13 13